Location: Roland
(31.1349°N, 85.4372°W)
Time: 21:35:29
(UTC+00:00)

Tiros 1 - Pass Details

Date: 22 April 2021
Orbit: 630 x 664 km, 48.4° (Epoch: 13 May)

Event Time Altitude Azimuth Distance (km) Brightness Sun altitude
Rises 20:35:42 0° 310° (NW) 2,913 10.9 45.6°
Reaches altitude 10° 20:38:01 10° 310° (NW) 2,003 10.2 45.1°
Maximum altitude 20:42:38 89° 224° (SW) 632 8.0 44.1°
Drops below altitude 10° 20:47:15 10° 132° (SE) 2,002 9.5 43.2°
Sets 20:49:34 0° 133° (SE) 2,911 10.3 42.7°
